This demonstration page uses our WeatherBlox Daily Observations layout. Learn more.

Hourly Observations for May 15, 2016

Temp ( °F °C ) Dew Point ( °F °C ) Humidity (%) Winds ( mph kmh ) Pressure ( in mb ) Visibility ( mi km ) Precip ( " mm )
12:15 am 00:15 Mostly Cloudy 52 11 43 6 72 72 N 3 6 29.88 1012 10 16.0934 0 0
12:35 am 00:35 Cloudy 52 11 43 6 72 72 NNW 8 13 29.88 1012 10 16.0934 0 0
12:55 am 00:55 Cloudy 52 11 43 6 72 72 WNW 7 11 29.88 1012 10 16.0934 0 0
1:15 am 01:15 Cloudy 52 11 43 6 72 72 WNW 16 26 29.88 1012 10 16.0934 0 0
1:35 am 01:35 Cloudy 50 10 43 6 76 76 NW 14 22 29.88 1012 10 16.0934 0 0
1:55 am 01:55 Cloudy 50 10 41 5 71 71 WNW 8 13 29.88 1012 10 16.0934 0 0
2:15 am 02:15 Partly Cloudy 48 9 41 5 76 76 WNW 8 13 29.88 1012 10 16.0934 0 0
2:35 am 02:35 Mostly Cloudy 48 9 41 5 76 76 WNW 9 15 29.88 1012 10 16.0934 0 0
2:55 am 02:55 Cloudy 50 10 41 5 71 71 WNW 15 24 29.88 1012 10 16.0934 0 0
3:15 am 03:15 Cloudy 50 10 41 5 71 71 W 14 22 29.91 1013 10 16.0934 0 0
3:35 am 03:35 Cloudy 48 9 39 4 71 71 WNW 15 24 29.91 1013 10 16.0934 0 0
3:55 am 03:55 Cloudy 48 9 41 5 76 76 W 12 19 29.91 1013 10 16.0934 0 0
4:15 am 04:15 Mostly Cloudy 46 8 39 4 76 76 W 16 26 29.94 1014 10 16.0934 0 0
4:35 am 04:35 Partly Cloudy 46 8 37 3 71 71 W 16 26 29.97 1015 10 16.0934 0 0
4:55 am 04:55 Partly Cloudy 48 9 37 3 66 66 W 10 17 29.94 1014 10 16.0934 0 0
5:15 am 05:15 Cloudy 48 9 37 3 66 66 WNW 9 15 29.94 1014 10 16.0934 0 0
5:35 am 05:35 Cloudy 48 9 37 3 66 66 WNW 13 20 29.94 1014 10 16.0934 0 0
5:55 am 05:55 Cloudy 48 9 37 3 66 66 NW 9 15 29.94 1014 10 16.0934 0 0
6:15 am 06:15 Cloudy 46 8 37 3 71 71 WNW 9 15 29.97 1015 10 16.0934 0 0
6:35 am 06:35 Cloudy 48 9 37 3 66 66 WNW 9 15 29.94 1014 10 16.0934 0 0
6:55 am 06:55 Cloudy 48 9 37 3 66 66 WNW 15 24 29.94 1014 10 16.0934 0 0
7:15 am 07:15 Cloudy 50 10 37 3 62 62 W 9 15 29.97 1015 10 16.0934 0 0
7:35 am 07:35 Mostly Cloudy 50 10 37 3 62 62 W 14 22 29.97 1015 10 16.0934 0 0
7:55 am 07:55 Partly Cloudy 50 10 37 3 62 62 W 15 24 29.97 1015 10 16.0934 0 0
8:15 am 08:15 Partly Cloudy 52 11 37 3 58 58 W 18 30 29.97 1015 10 16.0934 0 0
8:35 am 08:35 Mostly Cloudy 50 10 34 1 54 54 WNW 28 44 29.97 1015 10 16.0934 0 0
8:55 am 08:55 Partly Cloudy 52 11 32 0 47 47 WNW 16 26 29.97 1015 10 16.0934 0 0
9:15 am 09:15 Partly Cloudy 52 11 32 0 47 47 WNW 20 31 29.97 1015 10 16.0934 0 0
9:35 am 09:35 Partly Cloudy 50 10 32 0 50 50 WNW 23 37 30 1016 10 16.0934 0 0
9:55 am 09:55 Partly Cloudy 52 11 32 0 47 47 WNW 24 39 29.97 1015 10 16.0934 0 0
10:15 am 10:15 Sunny 54 12 32 0 44 44 WNW 28 44 29.97 1015 10 16.0934 0 0
10:35 am 10:35 Sunny 54 12 34 1 47 47 WNW 24 39 29.97 1015 10 16.0934 0 0
10:55 am 10:55 Partly Cloudy 55 13 32 0 41 41 WNW 23 37 29.97 1015 10 16.0934 0 0
11:15 am 11:15 Partly Cloudy 55 13 32 0 41 41 NW 25 41 29.97 1015 10 16.0934 0 0
11:35 am 11:35 Sunny 55 13 32 0 41 41 NW 25 41 29.97 1015 10 16.0934 0 0
11:55 am 11:55 Partly Cloudy 57 14 32 0 39 39 WNW 24 39 29.97 1015 10 16.0934 0 0
12:15 pm 12:15 Partly Cloudy 57 14 32 0 39 39 W 20 31 29.97 1015 10 16.0934 0 0
12:35 pm 12:35 Partly Cloudy 59 15 34 1 39 39 WNW 24 39 29.97 1015 10 16.0934 0 0
12:55 pm 12:55 Partly Cloudy 57 14 34 1 41 41 WNW 23 37 29.97 1015 10 16.0934 0 0
1:15 pm 13:15 Mostly Cloudy 57 14 36 2 44 44 W 16 26 29.97 1015 10 16.0934 0 0
1:35 pm 13:35 Mostly Cloudy 55 13 34 1 44 44 W 21 33 29.97 1015 10 16.0934 0 0
1:55 pm 13:55 Mostly Cloudy 57 14 34 1 41 41 W 18 30 29.97 1015 10 16.0934 0 0
2:15 pm 14:15 Cloudy 59 15 34 1 39 39 W 21 33 29.97 1015 10 16.0934 0 0
2:35 pm 14:35 Cloudy 59 15 34 1 39 39 W 18 30 29.97 1015 10 16.0934 0 0
2:55 pm 14:55 Cloudy 57 14 34 1 41 41 WNW 20 31 29.94 1014 10 16.0934 0 0
3:15 pm 15:15 Mostly Cloudy 59 15 32 0 36 36 WNW 17 28 29.94 1014 10 16.0934 0 0
3:35 pm 15:35 Mostly Cloudy 57 14 32 0 39 39 NW 21 33 29.94 1014 10 16.0934 0 0
3:55 pm 15:55 Cloudy 59 15 32 0 36 36 W 21 33 29.94 1014 10 16.0934 0 0
4:15 pm 16:15 Cloudy 59 15 32 0 36 36 WNW 17 28 29.94 1014 10 16.0934 0 0
4:35 pm 16:35 Cloudy 59 15 32 0 36 36 W 20 31 29.94 1014 10 16.0934 0 0
4:55 pm 16:55 Cloudy 59 15 32 0 36 36 W 16 26 29.94 1014 10 16.0934 0 0
5:15 pm 17:15 Cloudy 59 15 32 0 36 36 NW 18 30 29.97 1015 10 16.0934 0 0
5:35 pm 17:35 Cloudy 57 14 32 0 39 39 W 16 26 29.97 1015 10 16.0934 0 0
5:55 pm 17:55 Mostly Cloudy 59 15 32 0 36 36 WNW 20 31 29.97 1015 10 16.0934 0 0
6:15 pm 18:15 Mostly Cloudy 57 14 32 0 39 39 WNW 20 31 29.97 1015 10 16.0934 0 0
6:35 pm 18:35 Mostly Cloudy 59 15 32 0 36 36 WNW 21 33 29.97 1015 10 16.0934 0 0
6:55 pm 18:55 Cloudy 59 15 32 0 36 36 WNW 14 22 29.97 1015 10 16.0934 0 0
7:15 pm 19:15 Cloudy 57 14 34 1 41 41 WNW 13 20 30 1016 10 16.0934 0 0
7:35 pm 19:35 Cloudy 55 13 32 0 41 41 WNW 13 20 30 1016 10 16.0934 0 0
7:55 pm 19:55 Mostly Cloudy 54 12 32 0 44 44 NW 14 22 30 1016 10 16.0934 0 0
8:15 pm 20:15 Partly Cloudy 54 12 32 0 44 44 WNW 12 19 30.03 1017 10 16.0934 0 0
8:35 pm 20:35 Clear 52 11 32 0 47 47 NW 10 17 30.03 1017 10 16.0934 0 0
8:55 pm 20:55 Mostly Cloudy 52 11 32 0 47 47 WNW 12 19 30.06 1018 10 16.0934 0 0
9:15 pm 21:15 Mostly Cloudy 52 11 32 0 47 47 NW 10 17 30.06 1018 10 16.0934 0 0
9:35 pm 21:35 Mostly Cloudy 52 11 30 -1 44 44 WNW 12 19 30.06 1018 10 16.0934 0 0
9:55 pm 21:55 Mostly Cloudy 52 11 32 0 47 47 WNW 8 13 30.09 1019 10 16.0934 0 0
10:15 pm 22:15 Clear 50 10 30 -1 47 47 WNW 7 11 30.12 1020 10 16.0934 0 0
10:35 pm 22:35 Clear 50 10 32 0 50 50 WNW 9 15 30.15 1021 10 16.0934 0 0
10:55 pm 22:55 Clear 50 10 30 -1 47 47 NNW 5 7 30.15 1021 10 16.0934 0 0
11:15 pm 23:15 Clear 48 9 32 0 54 54 NE 5 7 30.15 1021 10 16.0934 0 0
11:35 pm 23:35 Partly Cloudy 48 9 34 1 58 58 NNE 3 6 30.15 1021 10 16.0934 0 0
11:55 pm 23:55 Partly Cloudy 46 8 34 1 62 62 Calm 30.15 1021 10 16.0934 0 0

Powered by AerisWeather